This is the latest recevied weather packets stored in our database for station/object KC8SWY-15. If no packets are shown the sender has not sent any weather packets the latest 10 day(s).
| Time | Temp. | Humidity | Pressure | Rain* | Wind** | Luminosity | Snow |
|---|---|---|---|---|---|---|---|
| 1778069965 | 5.56° C | 84% | 1013.6 hPa | 0 mm | - | - | - |
| 1778069665 | 5° C | 87% | 1013.6 hPa | 0 mm | - | - | - |
| 1778069365 | 5° C | 89% | 1013.5 hPa | 0 mm | - | - | - |
| 1778069065 | 4.44° C | 90% | 1013.3 hPa | 0 mm | - | - | - |
| 1778068765 | 3.89° C | 90% | 1013.3 hPa | 0 mm | - | - | - |
| 1778068465 | 3.89° C | 90% | 1013.2 hPa | 0 mm | - | - | - |
| 1778068165 | 3.33° C | 92% | 1013.1 hPa | 0 mm | - | - | - |
| 1778067865 | 2.78° C | 93% | 1013 hPa | 0 mm | - | - | - |
| 1778067565 | 2.22° C | 94% | 1012.9 hPa | 0 mm | - | - | - |
| 1778067265 | 1.67° C | 94% | 1012.7 hPa | 0 mm | - | - | - |
| 1778067024 | 1.11° C | 93% | 1012.7 hPa | 0 mm | - | - | - |
| 1778066965 | 1.11° C | 93% | 1012.7 hPa | 0 mm | - | - | - |
| 1778066665 | 1.11° C | 93% | 1012.6 hPa | 0 mm | - | - | - |
| 1778066365 | 1.11° C | 93% | 1012.4 hPa | 0 mm | - | - | - |
| 1778066158 | 0.56° C | 92% | 1012.4 hPa | 0 mm | - | - | - |
| 1778066065 | 0.56° C | 92% | 1012.4 hPa | 0 mm | - | - | - |
| 1778065765 | 0.56° C | 92% | 1012.4 hPa | 0 mm | - | - | - |
| 1778065465 | 0.56° C | 92% | 1012.4 hPa | 0 mm | - | - | - |
| 1778065165 | 0.56° C | 92% | 1012.2 hPa | 0 mm | - | - | - |
| 1778064865 | 0.56° C | 92% | 1012.1 hPa | 0 mm | - | - | - |
| 1778064565 | 0° C | 91% | 1012 hPa | 0 mm | - | - | - |
| 1778064265 | 0° C | 91% | 1012 hPa | 0 mm | - | - | - |
| 1778063966 | 0° C | 91% | 1012 hPa | 0 mm | - | - | - |
| 1778063665 | 0° C | 90% | 1012.1 hPa | 0 mm | - | - | - |
| 1778063365 | 0° C | 90% | 1011.9 hPa | 0 mm | - | - | - |
* Rain latest hour (hover to see other rain measurements)
** Current wind speed in m/s (hover to see current wind gust speed)